Location: Caserta
(41.0670°N, 14.3330°E)
Time: 01:23:23
(UTC+02:00)

STARLINK-1352 - Pass Details

Date: 30 May 2020
Orbit: 548 x 551 km, 53.0° (Epoch: 07 July)

Event Time Altitude Azimuth Distance (km) Brightness Sun altitude
Exits shadow 04:00:09 - 287° (WNW) 2,601 6.8 -14.5°
Maximum altitude 04:05:30 18° 349° (N) 1,416 6.2 -13.8°
Drops below altitude 10° 04:08:26 10° 33° (NNE) 1,858 7.7 -13.5°
Sets 04:11:18 0° 53° (NE) 2,760 9.1 -13.1°
